Regional Weather Roundup
Issued by NWS

Home | Current Version | Previous Version | Graphics & Text | Print | Product List | Glossary On
Versions: 1 2 3 4 5 6 7 8 9 10 11 12 13 14 15 16 17 18 19 20 21 22 23 24 25 26 27 28 29 30 31 32 33 34 35 36 37 38 39 40 41 42 43 44 45 46 47 48 49 50
000
ASUS44 KMEG 271000
RWRTN
TENNESSEE HOURLY STATE WEATHER ROUNDUP
NATIONAL WEATHER SERVICE MEMPHIS TN
500 AM CDT THU AUG 27 2015

TNZ002-004-019-021-049-052-054-088>092-271100-
WEST TENNESSEE

CITY           SKY/WX    TMP DP  RH WIND       PRES   REMARKS
MEMPHIS INTL   CLEAR     66  56  70 NE5       30.09S
NWS MEMPHIS      N/A     61 N/A N/A MISG        N/A
JACKSON        CLOUDY    59  56  89 CALM      30.10R
DYERSBURG      CLEAR    N/A N/A N/A MISG        N/A
UNION CITY     CLEAR    N/A N/A N/A CALM      30.10S
PARIS          CLEAR     54  52  94 NE3       30.11S
LEXINGTON      PTCLDY    57  55  94 N5        30.08S
$$

TNZ008-025-027-028-033-062-065-066-271100-
NORTH MIDDLE TENNESSEE

CITY           SKY/WX    TMP DP  RH WIND       PRES   REMARKS
NASHVILLE      CLEAR     60  55  83 CALM      30.10R
CLARKSVILLE    CLEAR     54  52  93 CALM      30.11R FOG
COOKEVILLE     CLEAR     52  52 100 CALM      30.09S
CROSSVILLE     CLEAR     56  53  90 NE3       30.12S
$$

TNZ061-075-076-078-094-096-097-271100-
SOUTH MIDDLE TENNESSEE

CITY           SKY/WX    TMP DP  RH WIND       PRES   REMARKS
FAYETTEVILLE   CLEAR     57  55  94 NE7       30.07S
TULLAHOMA      CLEAR     59  55  88 NE3       30.09S
WINCHESTER     PTCLDY    52  52 100 CALM      30.08R
COLUMBIA       CLEAR    N/A N/A N/A CALM      30.08R
SHELBYVILLE    CLEAR     55  55 100 CALM      30.09S
$$

TNZ017-018-042-046-047-271100-
NORTHEAST TENNESSEE

CITY           SKY/WX    TMP DP  RH WIND       PRES   REMARKS
TRI CITIES     CLOUDY    60  53  77 CALM      30.12R
$$

TNZ012-013-036-069-073-074-271100-
CENTRAL EAST TENNESSEE

CITY           SKY/WX    TMP DP  RH WIND       PRES   REMARKS
KNOXVILLE      MOCLDY    62  56  80 NE8       30.07S
OAK RIDGE      PTCLDY    61  56  83 CALM      30.10S
GATLINBURG     MOSUNNY   61  54  77 CALM      30.08S
$$

TNZ083-085-099-271100-
SOUTHEAST TENNESSEE

CITY           SKY/WX    TMP DP  RH WIND       PRES   REMARKS
CHATTANOOGA    PTCLDY    66  56  70 N9        30.05S
$$

SKY/WX REPORTED AS FAIR MEANS FEW OR NO CLOUDS BELOW
12 THOUSAND FEET.




USA.gov is the U.S. government's official web portal to all federal, state and local government web resources and services.